[[{"header":{"parameterUnit":"m.s-1","parameterCategory":1,"la1":30.2991,"la2":30.254,"lo1":-89.0895,"lo2":-89.0444,"dy":0.0017,"dx":0.0017,"nx":28,"ny":28,"refTime":"2023-07-27T21:00:00:Z","depth":0,"parameterNumber":2,"parameterNumberName":"U-component_of_WINDS"},"data":[0,0,0,0,0,0,0,0,0,0,0,0,0,0,0,0,0,0,0,0,0,0,0,0,0,0,0,0,0,0,0,0,0,0,0,0,0,0,0,0,0,0,0,0,0,0,0,0,0,0,0,0,0,0,0,0,0,0,-1.9495,-1.9494,0,-1.9414,-1.9413,-1.9412,-1.9384,-1.9384,-1.9384,-1.9385,-1.9301,-1.9298,-1.9296,0,0,0,0,0,0,0,0,0,0,0,0,0,-1.9623,-1.9621,-1.9495,-1.9494,-1.9493,-1.9414,-1.9413,-1.9412,-1.9384,-1.9384,-1.9384,-1.9385,-1.9301,-1.9298,-1.9295,0,0,0,0,0,0,0,0,0,0,0,0,0,-1.9557,-1.962,-1.9495,-1.9469,-1.9466,-1.9415,-1.9413,-1.9412,-1.9384,-1.9384,-1.9384,-1.9385,-1.9302,-1.9299,-1.9295,-1.9263,0,0,-1.9284,-1.9282,0,0,0,0,0,0,0,0,-1.9561,-1.9553,-1.9474,-1.9471,-1.9467,-1.941,-1.9428,-1.9362,-1.9383,-1.9415,-1.9385,-1.9385,-1.9336,-1.933,-1.9314,-1.9259,-1.9256,-1.9283,-1.9281,-1.9279,-1.9278,0,0,0,0,0,0,0,-1.9566,-1.9556,-1.9463,-1.9473,-1.9469,-1.9461,-1.9452,-1.9415,-1.9374,-1.9412,-1.941,-1.9401,-1.9335,-1.9317,-1.9312,-1.9254,-1.9283,-1.928,-1.9278,-1.9276,-1.9171,-1.9171,0,0,0,0,0,0,-1.9575,-1.956,-1.9465,-1.946,-1.9516,-1.9459,-1.9449,-1.9428,-1.9374,-1.9367,-1.94,-1.94,-1.9324,-1.9316,-1.9309,-1.9268,-1.9279,-1.9276,-1.9274,-1.9172,-1.9171,-1.917,0,0,0,0,0,0,-1.9577,-1.9566,-1.9469,-1.951,-1.9497,-1.9456,-1.9432,-1.9426,-1.9408,-1.9366,-1.9358,-1.9391,-1.9324,-1.9314,-1.9275,-1.9265,-1.9274,-1.9271,-1.9172,-1.9171,-1.9171,-1.9187,0,0,0,0,0,0,-1.9581,-1.9568,-1.9555,-1.9509,-1.9494,-1.9437,-1.9432,-1.9424,-1.9402,-1.9401,-1.9354,-1.9347,-1.9323,-1.9281,-1.9271,-1.926,-1.9268,-1.9173,-1.9172,-1.9171,-1.9187,-1.9187,-1.9187,0,0,0,0,0,-1.9586,-1.9562,-1.9555,-1.9543,-1.9478,-1.9436,-1.9427,-1.9401,-1.9402,-1.9389,-1.9361,-1.9349,-1.9268,-1.9277,-1.9266,-1.9253,-1.9173,-1.9172,-1.9171,-1.9187,-1.9187,-1.9187,0,0,0,0,0,0,-1.9606,-1.9556,-1.9547,-1.9507,-1.9476,-1.9431,-1.9414,-1.9401,-1.9369,-1.9368,-1.9337,-1.9327,-1.9291,-1.9268,-1.9279,-1.9221,-1.922,-1.9217,-1.9236,-1.9235,-1.9235,-1.9241,-1.9265,0,0,0,0,0,-1.9607,-1.9577,-1.9534,-1.9504,-1.9489,-1.9454,-1.9435,-1.9418,-1.9384,-1.937,-1.934,-1.9308,-1.9275,-1.9254,-1.9222,-1.9185,-1.9174,-1.9171,-1.917,-1.917,-1.9167,-1.9147,-1.9145,-1.9166,-1.9166,-1.9166,0,0,-1.9606,-1.9575,-1.9558,-1.9507,-1.9481,-1.9451,-1.9443,-1.9412,-1.9389,-1.9365,-1.9327,-1.9304,-1.9266,-1.9228,-1.921,-1.9208,-1.9159,-1.9169,-1.9169,-1.9166,-1.9145,-1.9143,-1.9141,-1.9166,-1.9166,-1.9166,0,0,-1.959,-1.9564,-1.9536,-1.951,-1.9471,-1.9449,-1.9442,-1.9399,-1.9383,-1.9345,-1.9327,-1.93,-1.9244,-1.9218,-1.9197,-1.9174,-1.9161,-1.9164,-1.9162,-1.9143,-1.9141,-1.9139,-1.9131,-1.9129,-1.9162,-1.9162,-1.9162,0,-1.9594,-1.9549,-1.9523,-1.9493,-1.9471,-1.945,-1.9421,-1.9398,-1.935,-1.9336,-1.9335,-1.9266,-1.9239,-1.9195,-1.9189,-1.9173,-1.9165,-1.9169,-1.9144,-1.9142,-1.914,-1.9131,-1.9128,-1.9163,-1.9162,-1.9162,-1.9162,0,-1.9556,-1.9525,-1.9507,-1.9463,-1.9439,-1.941,-1.938,-1.936,-1.9345,-1.9323,-1.9284,-1.9251,-1.9212,-1.9201,-1.9186,-1.9155,-1.9156,-1.915,-1.9148,-1.9139,-1.913,-1.9127,-1.9163,-1.9163,-1.9163,-1.9163,0,0,-1.9548,-1.9492,-1.9486,-1.9466,-1.9422,-1.9398,-1.9368,-1.9331,-1.9314,-1.9283,-1.9257,-1.9212,-1.9207,-1.9183,-1.9165,-1.9148,-1.9133,-1.9145,-1.9143,-1.9143,-1.9097,-1.9102,-1.9098,-1.9125,-1.9124,-1.9123,-1.9101,0,-1.9526,-1.9473,-1.945,-1.9407,-1.9378,-1.9358,-1.9333,-1.9304,-1.9283,-1.9255,-1.9232,-1.92,-1.9196,-1.9182,-1.9164,-1.9138,-1.9123,-1.914,-1.91,-1.9099,-1.911,-1.9094,-1.9098,-1.9078,-1.9097,-1.9097,-1.9096,0,-1.9493,-1.9462,-1.9417,-1.9378,-1.9365,-1.9343,-1.9308,-1.9282,-1.9249,-1.9235,-1.921,-1.9193,-1.9162,-1.9164,-1.9121,-1.9133,-1.9116,-1.9101,-1.9099,-1.9094,-1.9096,-1.9088,-1.9071,-1.9068,-1.9091,-1.9091,-1.9092,0,-1.9492,-1.944,-1.9406,-1.9389,-1.9343,-1.9328,-1.9308,-1.9276,-1.9255,-1.9225,-1.9211,-1.9177,-1.9159,-1.9133,-1.9108,-1.9112,-1.9067,-1.9067,-1.9054,-1.9055,-1.9044,-1.9045,-1.9024,-1.9035,-1.9035,-1.9035,-1.9035,0,-1.9469,-1.9442,-1.9405,-1.9384,-1.9354,-1.9328,-1.9298,-1.9277,-1.9248,-1.9223,-1.9204,-1.9181,-1.915,-1.9123,-1.9103,-1.907,-1.9062,-1.905,-1.9045,-1.9051,-1.9053,-1.9038,-1.9039,-1.9034,-1.9034,-1.9034,-1.9035,0,-1.9462,-1.9436,-1.9398,-1.9359,-1.9348,-1.9327,-1.9293,-1.9273,-1.9252,-1.922,-1.9211,-1.9178,-1.9146,-1.9119,-1.9075,-1.9062,-1.9028,-1.9023,-1.904,-1.9037,-1.9026,-1.9027,-1.8994,-1.8989,-1.9004,-1.9004,-1.9004,0,-1.9449,-1.9428,-1.9387,-1.9369,-1.9349,-1.9321,-1.93,-1.9275,-1.9254,-1.9216,-1.92,-1.9166,-1.9138,-1.9087,-1.9059,-1.9026,-1.9019,-1.901,-1.9014,-1.9022,-1.9019,-1.902,-1.9018,-1.901,-1.901,-1.901,-1.901,0,-1.9428,-1.9417,-1.9388,-1.9356,-1.9332,-1.9305,-1.9278,-1.9264,-1.9234,-1.9212,-1.9179,-1.9157,-1.9114,-1.9081,-1.9045,-1.9025,-1.9012,-1.9009,-1.9004,-1.901,-1.9021,-1.9015,-1.9038,-1.9009,-1.9009,-1.9009,-1.9009,-1.9009,-1.9417,-1.9398,-1.9366,-1.9335,-1.9313,-1.9288,-1.9267,-1.9244,-1.9216,-1.9179,-1.9166,-1.9132,-1.9101,-1.9053,-1.9033,-1.9006,-1.9004,-1.8998,-1.8996,-1.8994,-1.8995,-1.9026,-1.9,-1.8999,-1.8999,-1.8999,-1.8999,0,-1.9395,-1.9374,-1.9347,-1.9309,-1.9285,-1.9277,-1.9247,-1.9227,-1.9198,-1.917,-1.9143,-1.9106,-1.9074,-1.9045,-1.9012,-1.8996,-1.899,-1.8988,-1.8989,-1.8984,-1.8998,-1.9006,-1.8994,-1.8994,-1.8994,-1.8994,-1.8994,-1.8994,-1.9381,-1.9348,-1.9333,-1.9289,-1.9269,-1.9236,-1.922,-1.9197,-1.9175,-1.9134,-1.9108,-1.909,-1.9061,-1.9027,-1.8997,-1.899,-1.8978,-1.8978,-1.8969,-1.8982,-1.8983,-1.8984,-1.8991,-1.8976,-1.8976,-1.8957,-1.8957,-1.8957]},{"header":{"parameterUnit":"m.s-1","parameterCategory":1,"la1":30.2991,"la2":30.254,"lo1":-89.0895,"lo2":-89.0444,"dy":0.0017,"dx":0.0017,"nx":28,"ny":28,"refTime":"2023-07-27T21:00:00:Z","depth":0,"parameterNumber":3,"parameterNumberName":"V-component_of_WINDS"},"data":[0,0,0,0,0,0,0,0,0,0,0,0,0,0,0,0,0,0,0,0,0,0,0,0,0,0,0,0,0,0,0,0,0,0,0,0,0,0,0,0,0,0,0,0,0,0,0,0,0,0,0,0,0,0,0,0,0,0,2.3876,2.3877,0,2.3957,2.3958,2.3959,2.4049,2.405,2.4052,2.4053,2.4131,2.4131,2.4132,0,0,0,0,0,0,0,0,0,0,0,0,0,2.3794,2.3795,2.3876,2.3877,2.3878,2.3957,2.3958,2.3959,2.4049,2.405,2.4052,2.4054,2.413,2.4131,2.4132,0,0,0,0,0,0,0,0,0,0,0,0,0,2.3847,2.3795,2.3876,2.3932,2.3938,2.3957,2.3958,2.396,2.4048,2.405,2.4052,2.4054,2.413,2.4131,2.4132,2.41,0,0,2.4136,2.4137,0,0,0,0,0,0,0,0,2.3844,2.385,2.3923,2.3929,2.3935,2.3995,2.3958,2.4007,2.4048,2.4006,2.4053,2.4055,2.4084,2.4089,2.4099,2.4104,2.4107,2.4136,2.4137,2.4138,2.4138,0,0,0,0,0,0,0,2.384,2.3847,2.3908,2.3924,2.3931,2.3952,2.3962,2.3967,2.4033,2.401,2.4017,2.4026,2.4087,2.4098,2.4102,2.4108,2.4136,2.4137,2.4138,2.4139,2.4089,2.4087,0,0,0,0,0,0,2.3829,2.3844,2.3905,2.3911,2.3894,2.3952,2.3963,2.3974,2.4033,2.4044,2.4024,2.403,2.4095,2.41,2.4105,2.407,2.4138,2.4139,2.4139,2.4091,2.4089,2.4087,0,0,0,0,0,0,2.3827,2.3834,2.3902,2.3879,2.3889,2.3951,2.3963,2.3974,2.3985,2.4043,2.4055,2.4023,2.4097,2.4103,2.4101,2.4074,2.4139,2.414,2.4094,2.4091,2.4088,2.4,0,0,0,0,0,0,2.3824,2.3832,2.3822,2.3878,2.389,2.3898,2.3961,2.3975,2.3988,2.3996,2.4046,2.4056,2.4099,2.4099,2.4102,2.4077,2.4141,2.4096,2.4092,2.4089,2.4005,2.3994,2.3984,0,0,0,0,0,2.3821,2.3793,2.3821,2.3828,2.3879,2.3896,2.3903,2.3954,2.3985,2.3974,2.4012,2.4054,2.4077,2.4098,2.4102,2.4077,2.4098,2.4093,2.4089,2.401,2.3996,2.3985,0,0,0,0,0,0,2.3729,2.3801,2.3833,2.3823,2.3853,2.3911,2.3899,2.3938,2.3959,2.3965,2.4027,2.4038,2.4027,2.4053,2.4074,2.4048,2.4094,2.409,2.4032,2.4019,2.4009,2.4002,2.4142,0,0,0,0,0,2.3709,2.3718,2.378,2.3765,2.3779,2.3836,2.3846,2.3883,2.3916,2.3928,2.3966,2.3994,2.4008,2.4016,2.4032,2.4011,2.4021,2.3995,2.3985,2.3976,2.3971,2.396,2.3948,2.4071,2.4071,2.4072,0,0,2.3664,2.3705,2.3707,2.3748,2.3775,2.3782,2.3846,2.3851,2.3856,2.3929,2.3929,2.3957,2.3993,2.3981,2.3977,2.4001,2.394,2.397,2.3963,2.3962,2.3954,2.3942,2.3932,2.4068,2.4069,2.4069,0,0,2.3587,2.362,2.361,2.3637,2.3679,2.3718,2.3715,2.3768,2.379,2.3792,2.3846,2.3853,2.3876,2.3899,2.3914,2.3846,2.3885,2.385,2.3794,2.3783,2.3773,2.3765,2.3738,2.3728,2.3845,2.3845,2.3845,0,2.3526,2.3541,2.36,2.3601,2.3617,2.3686,2.3675,2.3698,2.3742,2.375,2.3777,2.3807,2.3837,2.383,2.3813,2.3824,2.3821,2.3843,2.377,2.3762,2.3755,2.3731,2.3721,2.384,2.3841,2.3841,2.3842,0,2.3463,2.3472,2.3459,2.3501,2.3516,2.3511,2.3568,2.3575,2.3612,2.3647,2.3647,2.3685,2.3709,2.3711,2.3746,2.3709,2.3722,2.3759,2.3805,2.3738,2.3715,2.3707,2.3833,2.3835,2.3837,2.3838,0,0,2.3327,2.3404,2.3398,2.3418,2.347,2.3477,2.3475,2.3501,2.3505,2.3534,2.3532,2.355,2.3585,2.3601,2.364,2.363,2.3572,2.3668,2.367,2.3646,2.3531,2.3501,2.3489,2.36,2.3598,2.3597,2.3527,0,2.3257,2.326,2.3313,2.33,2.3308,2.3374,2.3372,2.3403,2.3436,2.3446,2.3483,2.3494,2.3539,2.355,2.3543,2.358,2.3549,2.3586,2.3596,2.3595,2.3582,2.3478,2.3446,2.3378,2.3519,2.3517,2.3517,0,2.3175,2.32,2.3188,2.324,2.3246,2.3243,2.327,2.3281,2.3316,2.3341,2.336,2.3405,2.3405,2.3451,2.3451,2.3475,2.3483,2.3501,2.35,2.35,2.3549,2.3473,2.3358,2.3347,2.3504,2.3505,2.3506,0,2.3075,2.3106,2.3102,2.3117,2.3179,2.3175,2.32,2.3239,2.325,2.3274,2.3282,2.3305,2.3317,2.3333,2.3381,2.3411,2.3375,2.3425,2.3393,2.3392,2.338,2.3379,2.3262,2.3389,2.339,2.339,2.339,0,2.2989,2.2978,2.3058,2.3055,2.3044,2.3106,2.3093,2.3125,2.3158,2.3161,2.322,2.3222,2.3288,2.3296,2.3335,2.3328,2.3333,2.3351,2.3361,2.3344,2.3341,2.3348,2.3352,2.3387,2.3388,2.3388,2.3389,0,2.2873,2.2927,2.2927,2.2986,2.3,2.2989,2.3039,2.3038,2.3076,2.3079,2.3083,2.3142,2.3155,2.3206,2.3231,2.3257,2.3236,2.3258,2.3224,2.323,2.3194,2.3196,2.3074,2.306,2.3199,2.3197,2.3196,0,2.2814,2.2807,2.2866,2.2873,2.2896,2.2907,2.292,2.298,2.2991,2.3032,2.3025,2.3044,2.3061,2.3079,2.3122,2.3141,2.3162,2.3118,2.3164,2.3148,2.3158,2.3156,2.3155,2.3106,2.3105,2.3103,2.3102,0,2.2701,2.2728,2.2745,2.2771,2.2785,2.2808,2.2835,2.2837,2.2904,2.2913,2.2928,2.2942,2.2969,2.2985,2.3012,2.3036,2.3079,2.3088,2.3081,2.3062,2.3042,2.3049,2.3194,2.3089,2.309,2.3091,2.3092,2.3093,2.261,2.2607,2.2647,2.2664,2.2691,2.2714,2.2716,2.2755,2.2769,2.2796,2.2831,2.2841,2.2877,2.2918,2.2939,2.2947,2.2971,2.2961,2.2958,2.2954,2.2945,2.3043,2.2952,2.2953,2.2953,2.2953,2.2954,0,2.2498,2.2528,2.2543,2.2579,2.2592,2.2635,2.2666,2.2673,2.2682,2.2713,2.2729,2.2746,2.2763,2.2808,2.2829,2.2826,2.2846,2.2829,2.2828,2.2833,2.2924,2.2926,2.2812,2.2812,2.2812,2.2812,2.2812,2.2812,2.2441,2.2437,2.2469,2.2479,2.2509,2.252,2.2534,2.2556,2.258,2.2597,2.2611,2.2642,2.2678,2.2702,2.2719,2.2732,2.2735,2.2711,2.273,2.2813,2.2826,2.2839,2.2842,2.2712,2.2712,2.2638,2.2637,2.2637]}]]